Regional Weather Roundup
Issued by NWS

Home | Current Version | Previous Version | Graphics & Text | Print | Product List | Glossary On
Versions: 1 2 3 4 5 6 7 8 9 10 11 12 13 14 15 16 17 18 19 20 21 22 23 24 25 26 27 28 29 30 31 32 33 34 35 36 37 38 39 40 41 42 43 44 45 46 47 48 49 50
000
ASUS45 KBOU 250207
RWRCO

WEATHER ROUNDUP FOR COLORADO
NATIONAL WEATHER SERVICE DENVER/BOULDER CO
800 PM MDT TUE MAY 24 2016

NOTE: "FAIR" INDICATES FEW OR NO CLOUDS BELOW 12000 FEET WITH NO
SIGNIFICANT WEATHER AND/OR OBSTRUCTIONS TO VISIBILITY.

COZ001>005-013-030-031-250300-
...NORTHWEST COLORADO...

CITY           SKY/WX    TMP DP  RH WIND       PRES   REMARKS
CRAIG          FAIR      59  29  31 W13       29.91R
HAYDEN         FAIR      57  25  28 W17G36    29.90R
MEEKER         FAIR      62  21  20 SW24G31   29.92R
MOUNT WERNER   NOT AVBL
STEAMBOAT SPGS FAIR      60  22  23 SW5       29.91R
WALDEN         FAIR      52  21  30 SW15      29.98R
$$

COZ006>008-011-250300-
...WEST CENTRAL VALLEYS...

CITY           SKY/WX    TMP DP  RH WIND       PRES   REMARKS
GRAND JUNCTION FAIR      69  19  15 W31G43    29.84R
MONTROSE       FAIR      68  14  12 SW18G26   29.91R
EAGLE          FAIR      64  25  22 W6        29.92R
RIFLE          FAIR      68  14  12 SW8       29.86R
DELTA          FAIR      73  11   9 SW18G26   29.87R
NUCLA          FAIR      64  14  14 SW10      29.96R
$$

COZ017>023-064>068-250300-
...SOUTHWEST COLORADO...

CITY           SKY/WX    TMP DP  RH WIND       PRES   REMARKS
DURANGO        FAIR      64  10  12 SW13G24   30.00R
CORTEZ         FAIR      67  15  13 SW16G25   29.95R
PAGOSA SPRINGS FAIR      63   5  10 SW16G23   30.06R
TELLURIDE      FAIR      55   6  14 SW8G22    30.11R
WOLF CREEK PAS FAIR      36  10  35 SW35G44   30.27S
$$

COZ009-010-012-014-032>034-037-058>063-250300-
...CENTRAL COLORADO...

CITY           SKY/WX    TMP DP  RH WIND       PRES   REMARKS
ASPEN          FAIR      60  21  22 S15       29.97F
BUENA VISTA    FAIR      60   6  12 S15G22    30.00R
COPPER MTN     NOT AVBL
BERTHOUD PASS  FAIR      34  27  75 CALM      30.24R
COTTONWOOD PAS FAIR      55  -4   8 SW10G22   30.11R
GUNNISON       FAIR      59  16  18 S12       30.02R
KREMMLING      FAIR      61  12  15 SW17      29.95R
LEADVILLE      FAIR      45  19  35 VRB3      30.11R
MONARCH PASS   FAIR      37  12  35 SW38G46   30.31R
SALIDA         FAIR      65  11  12 SW8G22    30.05R
SUNLIGHT       FAIR      43  19  39 SW3       30.15S
WILKERSON PASS FAIR      45   9  23 SW7       30.19R
$$

COZ069>075-250300-
...SAN LUIS VALLEY/SANGRE DE CRISTO MOUNTAINS...

CITY           SKY/WX    TMP DP  RH WIND       PRES   REMARKS
ALAMOSA        FAIR      62  17  17 W13G23    30.01R
LA VETA PASS   FAIR      48  19  32 S9G24     30.16R
SAGUACHE       FAIR      61  12  15 W18G29    30.03R
$$

COZ035-036-038>040-250300-
...NORTHERN COLORADO FRONT RANGE...

CITY           SKY/WX    TMP DP  RH WIND       PRES   REMARKS
DENVER INTL AP MOCLDY    60  52  74 NE8       29.83S
DMNS CITY PARK   N/A     65  50  58 N15       29.85R
AURORA         MOCLDY    58  52  80 N9        29.84R
FRONT RANGE AP MOCLDY    59  52  77 NE6       29.83S
ERIE MUNI ARPT FAIR      62  49  62 N5        29.84R
BOULDER MUN AP MOCLDY    63  46  55 N7        29.85R
CENTENNIAL     FAIR      62  48  60 N9        29.85R
BROOMFIELD     MOCLDY   N/A N/A N/A NW9       29.87R
FORT COLLINS   FAIR      59  48  67 N6        29.86R
LONGMONT       LGT RAIN  65  49  56 NW8       29.86R
$$

COZ041-046-047-076>085-087-088-250300-
...PIKES PEAK/PALMER DIVIDE AND SOUTHERN FOOTHILLS...

CITY           SKY/WX    TMP DP  RH WIND       PRES   REMARKS
COLO. SPRINGS  FAIR      69  22  16 SW10      29.88R
A. F. ACADEMY  FAIR      66  18  15 S16       29.88R
SCHRIEVER AFB  NOT AVBL
ELLICOTT       FAIR     N/A N/A N/A S14       29.87R
FALCON         FAIR      65  19  16 SW13G18   29.93R
FORT CARSON    FAIR      71  22  15 SW12      29.85R
LIMON          FAIR      66  40  38 S10       29.82S
MONUMENT HILL  FAIR      57  32  38 S12       29.93R
TRINIDAD       FAIR      71  22  15 W13G23    29.87R
$$

COZ042>045-048>051-090-091-250300-
...NORTHEAST COLORADO...

CITY           SKY/WX    TMP DP  RH WIND       PRES   REMARKS
GREELEY ARPT   FAIR      63  46  55 NW3       29.84R
AKRON          FAIR      58  46  64 E7        29.79F
BURLINGTON     FAIR      70  60  70 E23G29    29.77S
WRAY           FAIR      70  59  68 E15G22    29.75F
STERLING       FAIR      61  50  67 NE5       29.75F
HOLYOKE        MOCLDY    61  46  59 NW23G30   29.85R THUNDER
FORT MORGAN    FAIR      58  47  68 N9        29.79S
$$

COZ086-089-092>099-250300-
...SOUTHEAST COLORADO...

CITY           SKY/WX    TMP DP  RH WIND       PRES   REMARKS
PUEBLO         FAIR      79  21  11 W15       29.78R
LA JUNTA       FAIR      77  40  26 NW9       29.74R
LAMAR          FAIR      77  33  20 S12       29.68R
SPRINGFIELD      N/A     72  31  22 S12       29.78R
$$



USA.gov is the U.S. government's official web portal to all federal, state and local government web resources and services.